ARABSAT 4B

导读 | 豆包AI

ARABSAT-4B是由欧洲航空防务和航天公司为阿拉伯卫星通信组织制造的第四代商业通信卫星,于2006年11月8日由俄罗斯“质子-M”运载火箭在拜科努尔发射场发射升空,经轨道调整后进入预定轨道。卫星重3.3吨,设计寿命15年,可覆盖北非、中东及西欧部分地区,提供数字卫星电视转播与电话通信服务。

Basic Information
目录编号:
29526
目录名称:
ARABSAT 4B
国际标识:
2006-051A
轨道中心:
EARTH
卫星名称:
ARABSAT 4B
卫星全名:
--
卫星状态:
在轨 (已飞行7113 天)
发射日期:
2006-11-08 UTC
国别 :
(ASCO)
星等 :
--
Orbit Information
数据来源 国际轨道数据 AOE轨道数据
星历时间 2026-04-30T21:31:21+0800
8小时前
查看轨道信息
2026-04-30T09:00:00+0800
21小时前
查看轨道信息
半长轴 42164.112km 42164.196km
偏心率 0.0005979 0.0005976
轨道倾角 1.883° 1.882°
近地点辐角 305.680° 305.159°
升交点赤经 81.601° 81.615°
平近点角 60.398° 232.550°
近地点 35760.765km 35760.861km
远地点 35811.185km 35811.257km
周期 1436.065分钟 1436.069分钟
每日圈数 1.00274 1.002737
Detailed Information
使用方式:
暂无
2D Orbit Map
3D Orbit Map
Orbit Altitude Analysis Chart
Orbit Inclination Analysis Chart
Orbit Comprehensive Analysis Chart
View Comprehensive Chart